Airfield :
LOGIN :

Register | Disclaimer

   EN    FR    IT 

 










Legend :    VFR   Marginal VFR   IFR   Intensive IFR   Very Intensive IFR
Visi :
Ceiling :
>= 8 km
>= 3000ft
5 to 8 km
1000 to 3000 ft
1500m to 5 km
500 to 1000 ft
800 to 1500m
200 to 500 ft
< 800m
< 200 ft
Symbols :   Thunderstorms  Fog  Heavy snow  Heavy precipitations  Wind > 20 kt
SIGMETs :     Misc.  Thunderstorms  Icing  Turbulence  Mountain Waves  Volcanic Ashes






- Airport Elevation : 1708 ft
- IATA code : SJJ


LQSA - Sarajevo

CURRENT METAR :
  • 201830Z VRB02KT CAVOK 12/09 Q1021 NOSIG

EXPIRED METARs :
  • 201800Z VRB02KT CAVOK 13/10 Q1021 NOSIG
  • 201730Z 11003KT 060V200 CAVOK 14/10 Q1021 NOSIG
  • 201700Z 12005KT CAVOK 15/10 Q1021 NOSIG
  • 201630Z 14004KT 130V190 CAVOK 16/10 Q1020 NOSIG
  • 201600Z 15003KT 120V180 CAVOK 18/11 Q1020 NOSIG

TAF TAF LQSA
Valid from the 20 at 18:00 until the 21 at 18:00 UTC


201700Z 2018/2118 15004KT CAVOK TX26/2114Z TN07/2104Z
TEMPO 2103/2108 1300 BCFG BKN004



MET'MAP, your aeronautical weather chart ! - Copyright ORBIFLY December 2007 - Disclaimer

ORBIFLY MET'MAP TEAM :

Programming & Development : Alexandra Zaïnal
Concept & Development : Baudouin d'Aumeries
Co-Development & Prog : Marc-Olivier Méhu
Technical & hardware support : Manuel Goepfert

Contact : metmap@orbifly.com




SOURCES & CREDITS :

   NOAA